owner,sensor,date,latitude,longitude,vertical_datum,sea_water_practical_salinity,qcFlag 
DISL,ioos:station:DISL:BSCA:1,2013-08-01T00:00:00Z,30.3288,-87.8293,1.622,11.48,1111122 
DISL,ioos:station:DISL:BSCA:1,2013-08-01T00:30:00Z,30.3288,-87.8293,1.636,11.56,1111122 
DISL,ioos:station:DISL:BSCA:1,2013-08-01T01:00:00Z,30.3288,-87.8293,1.653,11.61,1111122 
DISL,ioos:station:DISL:BSCA:1,2013-08-01T01:30:00Z,30.3288,-87.8293,1.685,11.64,1111122 
DISL,ioos:station:DISL:BSCA:1,2013-08-01T02:00:00Z,30.3288,-87.8293,1.727,11.66,1111122 
DISL,ioos:station:DISL:BSCA:1,2013-08-01T02:30:00Z,30.3288,-87.8293,1.749,11.83,1111122 
DISL,ioos:station:DISL:BSCA:1,2013-08-01T03:00:00Z,30.3288,-87.8293,1.781,11.86,1111122 
DISL,ioos:station:DISL:BSCA:1,2013-08-01T03:30:00Z,30.3288,-87.8293,1.803,11.79,1111122 
DISL,ioos:station:DISL:BSCA:1,2013-08-01T04:00:00Z,30.3288,-87.8293,1.825,11.72,1111122 
DISL,ioos:station:DISL:BSCA:1,2013-08-01T04:30:00Z,30.3288,-87.8293,1.855,11.58,1111122 
DISL,ioos:station:DISL:BSCA:1,2013-08-01T05:00:00Z,30.3288,-87.8293,1.88,11.63,1111122 
DISL,ioos:station:DISL:BSCA:1,2013-08-01T05:30:00Z,30.3288,-87.8293,1.907,11.29,1111122 
DISL,ioos:station:DISL:BSCA:1,2013-08-01T06:00:00Z,30.3288,-87.8293,1.933,11.31,1111122 
DISL,ioos:station:DISL:BSCA:1,2013-08-01T06:30:00Z,30.3288,-87.8293,1.963,11.28,1111122 
DISL,ioos:station:DISL:BSCA:1,2013-08-01T07:00:00Z,30.3288,-87.8293,2.004,11.28,1111122 
DISL,ioos:station:DISL:BSCA:1,2013-08-01T07:30:00Z,30.3288,-87.8293,2.023,11.27,1111122 
DISL,ioos:station:DISL:BSCA:1,2013-08-01T08:00:00Z,30.3288,-87.8293,2.103,11.3,1111122 
DISL,ioos:station:DISL:BSCA:1,2013-08-01T08:30:00Z,30.3288,-87.8293,2.083,11.32,1111122 
DISL,ioos:station:DISL:BSCA:1,2013-08-01T09:00:00Z,30.3288,-87.8293,2.101,11.33,1111122 
DISL,ioos:station:DISL:BSCA:1,2013-08-01T09:30:00Z,30.3288,-87.8293,2.12,11.34,1111122 
DISL,ioos:station:DISL:BSCA:1,2013-08-01T10:00:00Z,30.3288,-87.8293,2.136,11.38,1111122 
DISL,ioos:station:DISL:BSCA:1,2013-08-01T10:30:00Z,30.3288,-87.8293,2.161,11.41,1111122 
DISL,ioos:station:DISL:BSCA:1,2013-08-01T11:00:00Z,30.3288,-87.8293,2.108,11.38,1111122 
DISL,ioos:station:DISL:BSCA:1,2013-08-01T11:30:00Z,30.3288,-87.8293,2.194,11.36,1111122 
DISL,ioos:station:DISL:BSCA:1,2013-08-01T12:00:00Z,30.3288,-87.8293,2.159,11.38,1111122 
DISL,ioos:station:DISL:BSCA:1,2013-08-01T12:30:00Z,30.3288,-87.8293,2.166,11.43,1111122 
DISL,ioos:station:DISL:BSCA:1,2013-08-01T13:00:00Z,30.3288,-87.8293,2.146,11.4,1111122 
DISL,ioos:station:DISL:BSCA:1,2013-08-01T13:30:00Z,30.3288,-87.8293,2.143,11.3,1111122 
DISL,ioos:station:DISL:BSCA:1,2013-08-01T14:00:00Z,30.3288,-87.8293,2.067,11.27,1111122 
DISL,ioos:station:DISL:BSCA:1,2013-08-01T14:30:00Z,30.3288,-87.8293,2.106,11.28,1111122 
DISL,ioos:station:DISL:BSCA:1,2013-08-01T15:00:00Z,30.3288,-87.8293,2.064,11.28,1111122 
DISL,ioos:station:DISL:BSCA:1,2013-08-01T15:30:00Z,30.3288,-87.8293,2.046,11.3,1111122 
DISL,ioos:station:DISL:BSCA:1,2013-08-01T16:00:00Z,30.3288,-87.8293,2.029,11.3,1111122 
DISL,ioos:station:DISL:BSCA:1,2013-08-01T16:30:00Z,30.3288,-87.8293,1.972,11.36,1111122 
DISL,ioos:station:DISL:BSCA:1,2013-08-01T17:00:00Z,30.3288,-87.8293,1.937,11.35,1111122 
DISL,ioos:station:DISL:BSCA:1,2013-08-01T17:30:00Z,30.3288,-87.8293,1.93,11.36,1111122 
DISL,ioos:station:DISL:BSCA:1,2013-08-01T18:00:00Z,30.3288,-87.8293,1.894,11.35,1111122 
DISL,ioos:station:DISL:BSCA:1,2013-08-01T18:30:00Z,30.3288,-87.8293,1.869,11.35,1111122 
DISL,ioos:station:DISL:BSCA:1,2013-08-01T19:00:00Z,30.3288,-87.8293,1.858,11.41,1111122 
DISL,ioos:station:DISL:BSCA:1,2013-08-01T19:30:00Z,30.3288,-87.8293,1.824,11.39,1111122 
DISL,ioos:station:DISL:BSCA:1,2013-08-01T20:00:00Z,30.3288,-87.8293,1.799,11.4,1111122 
DISL,ioos:station:DISL:BSCA:1,2013-08-01T20:30:00Z,30.3288,-87.8293,1.725,11.38,1111122 
DISL,ioos:station:DISL:BSCA:1,2013-08-01T21:00:00Z,30.3288,-87.8293,1.877,11.43,1111122 
DISL,ioos:station:DISL:BSCA:1,2013-08-01T21:30:00Z,30.3288,-87.8293,1.821,11.33,1111122 
DISL,ioos:station:DISL:BSCA:1,2013-08-01T22:00:00Z,30.3288,-87.8293,1.761,11.48,1111122 
DISL,ioos:station:DISL:BSCA:1,2013-08-01T22:30:00Z,30.3288,-87.8293,1.651,11.22,1111122 
DISL,ioos:station:DISL:BSCA:1,2013-08-01T23:00:00Z,30.3288,-87.8293,1.691,11.22,1111122 
DISL,ioos:station:DISL:BSCA:1,2013-08-01T23:30:00Z,30.3288,-87.8293,1.625,11.21,1111122 
DISL,ioos:station:DISL:BSCA:1,2013-08-02T00:00:00Z,30.3288,-87.8293,1.681,11.18,1111122 
DISL,ioos:station:DISL:BSCA:1,2013-08-02T00:30:00Z,30.3288,-87.8293,1.649,11.25,1111122 
DISL,ioos:station:DISL:BSCA:1,2013-08-02T01:00:00Z,30.3288,-87.8293,1.677,11.37,1111122 
DISL,ioos:station:DISL:BSCA:1,2013-08-02T01:30:00Z,30.3288,-87.8293,1.654,11.19,1111122 
DISL,ioos:station:DISL:BSCA:1,2013-08-02T02:00:00Z,30.3288,-87.8293,1.649,11.17,1111122 
DISL,ioos:station:DISL:BSCA:1,2013-08-02T02:30:00Z,30.3288,-87.8293,1.653,11.2,1111122 
DISL,ioos:station:DISL:BSCA:1,2013-08-02T03:00:00Z,30.3288,-87.8293,1.69,11.22,1111122 
DISL,ioos:station:DISL:BSCA:1,2013-08-02T03:30:00Z,30.3288,-87.8293,1.691,11.23,1111122 
DISL,ioos:station:DISL:BSCA:1,2013-08-02T04:00:00Z,30.3288,-87.8293,1.72,11.25,1111122 
DISL,ioos:station:DISL:BSCA:1,2013-08-02T04:30:00Z,30.3288,-87.8293,1.741,11.26,1111122 
DISL,ioos:station:DISL:BSCA:1,2013-08-02T05:00:00Z,30.3288,-87.8293,1.764,11.26,1111122 
DISL,ioos:station:DISL:BSCA:1,2013-08-02T05:30:00Z,30.3288,-87.8293,1.793,11.27,1111122 
DISL,ioos:station:DISL:BSCA:1,2013-08-02T06:00:00Z,30.3288,-87.8293,1.829,11.28,1111122 
DISL,ioos:station:DISL:BSCA:1,2013-08-02T06:30:00Z,30.3288,-87.8293,1.869,11.33,1111122 
DISL,ioos:station:DISL:BSCA:1,2013-08-02T07:00:00Z,30.3288,-87.8293,1.904,11.36,1111122 
DISL,ioos:station:DISL:BSCA:1,2013-08-02T07:30:00Z,30.3288,-87.8293,1.93,11.38,1111122 
DISL,ioos:station:DISL:BSCA:1,2013-08-02T08:00:00Z,30.3288,-87.8293,1.95,11.42,1111122 
DISL,ioos:station:DISL:BSCA:1,2013-08-02T08:30:00Z,30.3288,-87.8293,1.971,11.44,1111122 
DISL,ioos:station:DISL:BSCA:1,2013-08-02T09:00:00Z,30.3288,-87.8293,2.007,11.43,1111122 
DISL,ioos:station:DISL:BSCA:1,2013-08-02T09:30:00Z,30.3288,-87.8293,2.04,11.54,1111122 
DISL,ioos:station:DISL:BSCA:1,2013-08-02T10:00:00Z,30.3288,-87.8293,2.077,11.58,1111122 
DISL,ioos:station:DISL:BSCA:1,2013-08-02T10:30:00Z,30.3288,-87.8293,2.089,11.6,1111122 
DISL,ioos:station:DISL:BSCA:1,2013-08-02T11:00:00Z,30.3288,-87.8293,2.103,11.62,1111122 
DISL,ioos:station:DISL:BSCA:1,2013-08-02T11:30:00Z,30.3288,-87.8293,2.104,11.64,1111122 
DISL,ioos:station:DISL:BSCA:1,2013-08-02T12:00:00Z,30.3288,-87.8293,2.108,11.66,1111122 
DISL,ioos:station:DISL:BSCA:1,2013-08-02T12:30:00Z,30.3288,-87.8293,2.119,11.7,1111122 
DISL,ioos:station:DISL:BSCA:1,2013-08-02T13:00:00Z,30.3288,-87.8293,2.107,11.73,1111122 
DISL,ioos:station:DISL:BSCA:1,2013-08-02T13:30:00Z,30.3288,-87.8293,2.098,11.73,1111122 
DISL,ioos:station:DISL:BSCA:1,2013-08-02T14:00:00Z,30.3288,-87.8293,2.089,11.57,1111122 
DISL,ioos:station:DISL:BSCA:1,2013-08-02T14:30:00Z,30.3288,-87.8293,2.066,11.31,1111122 
DISL,ioos:station:DISL:BSCA:1,2013-08-02T15:00:00Z,30.3288,-87.8293,2.068,11.2,1111122 
DISL,ioos:station:DISL:BSCA:1,2013-08-02T15:30:00Z,30.3288,-87.8293,2.033,11.32,1111122 
DISL,ioos:station:DISL:BSCA:1,2013-08-02T16:00:00Z,30.3288,-87.8293,2.021,11.37,1111122 
DISL,ioos:station:DISL:BSCA:1,2013-08-02T16:30:00Z,30.3288,-87.8293,1.998,11.35,1111122 
DISL,ioos:station:DISL:BSCA:1,2013-08-02T17:00:00Z,30.3288,-87.8293,1.967,11.12,1111122 
DISL,ioos:station:DISL:BSCA:1,2013-08-02T17:30:00Z,30.3288,-87.8293,1.945,11.28,1111122 
DISL,ioos:station:DISL:BSCA:1,2013-08-02T18:00:00Z,30.3288,-87.8293,1.908,11.11,1111122 
DISL,ioos:station:DISL:BSCA:1,2013-08-02T18:30:00Z,30.3288,-87.8293,1.883,11.22,1111122 
DISL,ioos:station:DISL:BSCA:1,2013-08-02T19:00:00Z,30.3288,-87.8293,1.853,11.19,1111122 
DISL,ioos:station:DISL:BSCA:1,2013-08-02T19:30:00Z,30.3288,-87.8293,1.818,11.23,1111122 
DISL,ioos:station:DISL:BSCA:1,2013-08-02T20:00:00Z,30.3288,-87.8293,1.782,11.3,1111122 
DISL,ioos:station:DISL:BSCA:1,2013-08-02T20:30:00Z,30.3288,-87.8293,1.757,11.23,1111122 
DISL,ioos:station:DISL:BSCA:1,2013-08-02T21:00:00Z,30.3288,-87.8293,1.731,11.09,1111122 
DISL,ioos:station:DISL:BSCA:1,2013-08-02T21:30:00Z,30.3288,-87.8293,1.704,11.08,1111122 
DISL,ioos:station:DISL:BSCA:1,2013-08-02T22:00:00Z,30.3288,-87.8293,1.682,11.04,1111122 
DISL,ioos:station:DISL:BSCA:1,2013-08-02T22:30:00Z,30.3288,-87.8293,1.678,11.02,1111122 
DISL,ioos:station:DISL:BSCA:1,2013-08-02T23:00:00Z,30.3288,-87.8293,1.655,10.92,1111122 
DISL,ioos:station:DISL:BSCA:1,2013-08-02T23:30:00Z,30.3288,-87.8293,1.649,10.9,1111122 
DISL,ioos:station:DISL:BSCA:1,2013-08-03T00:00:00Z,30.3288,-87.8293,1.64,10.91,1111122 
DISL,ioos:station:DISL:BSCA:1,2013-08-03T00:30:00Z,30.3288,-87.8293,1.662,10.92,1111122 
DISL,ioos:station:DISL:BSCA:1,2013-08-03T01:00:00Z,30.3288,-87.8293,1.669,10.9,1111122 
DISL,ioos:station:DISL:BSCA:1,2013-08-03T01:30:00Z,30.3288,-87.8293,1.677,10.92,1111122 
DISL,ioos:station:DISL:BSCA:1,2013-08-03T02:00:00Z,30.3288,-87.8293,1.685,10.92,1111122 
DISL,ioos:station:DISL:BSCA:1,2013-08-03T02:30:00Z,30.3288,-87.8293,1.696,10.92,1111122 
DISL,ioos:station:DISL:BSCA:1,2013-08-03T03:00:00Z,30.3288,-87.8293,1.71,10.99,1111122 
DISL,ioos:station:DISL:BSCA:1,2013-08-03T03:30:00Z,30.3288,-87.8293,1.736,11.0,1111122 
DISL,ioos:station:DISL:BSCA:1,2013-08-03T04:00:00Z,30.3288,-87.8293,1.763,11.04,1111122 
DISL,ioos:station:DISL:BSCA:1,2013-08-03T04:30:00Z,30.3288,-87.8293,1.786,11.03,1111122 
DISL,ioos:station:DISL:BSCA:1,2013-08-03T05:00:00Z,30.3288,-87.8293,1.809,11.01,1111122 
DISL,ioos:station:DISL:BSCA:1,2013-08-03T05:30:00Z,30.3288,-87.8293,1.832,10.99,1111122 
DISL,ioos:station:DISL:BSCA:1,2013-08-03T06:00:00Z,30.3288,-87.8293,1.853,11.01,1111122 
DISL,ioos:station:DISL:BSCA:1,2013-08-03T06:30:00Z,30.3288,-87.8293,1.876,11.0,1111122 
DISL,ioos:station:DISL:BSCA:1,2013-08-03T07:00:00Z,30.3288,-87.8293,1.899,11.0,1111122 
DISL,ioos:station:DISL:BSCA:1,2013-08-03T07:30:00Z,30.3288,-87.8293,1.92,11.0,1111122 
DISL,ioos:station:DISL:BSCA:1,2013-08-03T08:00:00Z,30.3288,-87.8293,1.944,11.01,1111122 
DISL,ioos:station:DISL:BSCA:1,2013-08-03T08:30:00Z,30.3288,-87.8293,1.976,11.0,1111122 
DISL,ioos:station:DISL:BSCA:1,2013-08-03T09:00:00Z,30.3288,-87.8293,1.99,10.99,1111122 
DISL,ioos:station:DISL:BSCA:1,2013-08-03T09:30:00Z,30.3288,-87.8293,2.033,11.0,1111122 
DISL,ioos:station:DISL:BSCA:1,2013-08-03T10:00:00Z,30.3288,-87.8293,2.058,10.99,1111122 
DISL,ioos:station:DISL:BSCA:1,2013-08-03T10:30:00Z,30.3288,-87.8293,2.086,10.98,1111122 
DISL,ioos:station:DISL:BSCA:1,2013-08-03T11:00:00Z,30.3288,-87.8293,2.097,10.94,1111122 
DISL,ioos:station:DISL:BSCA:1,2013-08-03T11:30:00Z,30.3288,-87.8293,2.12,10.94,1111122 
DISL,ioos:station:DISL:BSCA:1,2013-08-03T12:00:00Z,30.3288,-87.8293,2.125,10.96,1111122 
DISL,ioos:station:DISL:BSCA:1,2013-08-03T12:30:00Z,30.3288,-87.8293,2.133,10.96,1111122 
DISL,ioos:station:DISL:BSCA:1,2013-08-03T13:00:00Z,30.3288,-87.8293,2.14,10.92,1111122 
DISL,ioos:station:DISL:BSCA:1,2013-08-03T13:30:00Z,30.3288,-87.8293,2.128,10.87,1111122 
DISL,ioos:station:DISL:BSCA:1,2013-08-03T14:00:00Z,30.3288,-87.8293,2.124,10.85,1111122 
DISL,ioos:station:DISL:BSCA:1,2013-08-03T14:30:00Z,30.3288,-87.8293,2.106,10.88,1111122 
DISL,ioos:station:DISL:BSCA:1,2013-08-03T15:00:00Z,30.3288,-87.8293,2.091,10.89,1111122 
DISL,ioos:station:DISL:BSCA:1,2013-08-03T15:30:00Z,30.3288,-87.8293,2.07,10.75,1111122 
DISL,ioos:station:DISL:BSCA:1,2013-08-03T16:00:00Z,30.3288,-87.8293,2.051,10.79,1111122 
DISL,ioos:station:DISL:BSCA:1,2013-08-03T16:30:00Z,30.3288,-87.8293,2.028,10.78,1111122 
DISL,ioos:station:DISL:BSCA:1,2013-08-03T17:00:00Z,30.3288,-87.8293,2.004,10.86,1111122 
DISL,ioos:station:DISL:BSCA:1,2013-08-03T17:30:00Z,30.3288,-87.8293,1.974,10.9,1111122 
DISL,ioos:station:DISL:BSCA:1,2013-08-03T18:00:00Z,30.3288,-87.8293,1.937,10.94,1111122 
DISL,ioos:station:DISL:BSCA:1,2013-08-03T18:30:00Z,30.3288,-87.8293,1.898,10.97,1111122 
DISL,ioos:station:DISL:BSCA:1,2013-08-03T19:00:00Z,30.3288,-87.8293,1.867,10.96,1111122 
DISL,ioos:station:DISL:BSCA:1,2013-08-03T19:30:00Z,30.3288,-87.8293,1.828,10.97,1111122 
DISL,ioos:station:DISL:BSCA:1,2013-08-03T20:00:00Z,30.3288,-87.8293,1.801,10.95,1111122 
DISL,ioos:station:DISL:BSCA:1,2013-08-03T20:30:00Z,30.3288,-87.8293,1.769,10.92,1111122 
DISL,ioos:station:DISL:BSCA:1,2013-08-03T21:00:00Z,30.3288,-87.8293,1.739,10.9,1111122 
DISL,ioos:station:DISL:BSCA:1,2013-08-03T21:30:00Z,30.3288,-87.8293,1.717,10.87,1111122 
DISL,ioos:station:DISL:BSCA:1,2013-08-03T22:00:00Z,30.3288,-87.8293,1.687,10.82,1111122 
DISL,ioos:station:DISL:BSCA:1,2013-08-03T22:30:00Z,30.3288,-87.8293,1.668,10.85,1111122 
DISL,ioos:station:DISL:BSCA:1,2013-08-03T23:00:00Z,30.3288,-87.8293,1.651,10.7,1111122 
DISL,ioos:station:DISL:BSCA:1,2013-08-03T23:30:00Z,30.3288,-87.8293,1.643,10.36,1111122 
DISL,ioos:station:DISL:BSCA:1,2013-08-04T00:00:00Z,30.3288,-87.8293,1.634,9.61,1111122 
DISL,ioos:station:DISL:BSCA:1,2013-08-04T00:30:00Z,30.3288,-87.8293,1.627,9.44,1111122 
DISL,ioos:station:DISL:BSCA:1,2013-08-04T01:00:00Z,30.3288,-87.8293,1.629,9.23,1111122 
DISL,ioos:station:DISL:BSCA:1,2013-08-04T01:30:00Z,30.3288,-87.8293,1.625,9.11,1111122 
DISL,ioos:station:DISL:BSCA:1,2013-08-04T02:00:00Z,30.3288,-87.8293,1.631,9.08,1111122 
DISL,ioos:station:DISL:BSCA:1,2013-08-04T02:30:00Z,30.3288,-87.8293,1.643,8.99,1111122 
DISL,ioos:station:DISL:BSCA:1,2013-08-04T03:00:00Z,30.3288,-87.8293,1.646,9.03,1111122 
DISL,ioos:station:DISL:BSCA:1,2013-08-04T03:30:00Z,30.3288,-87.8293,1.662,9.01,1111122 
DISL,ioos:station:DISL:BSCA:1,2013-08-04T04:00:00Z,30.3288,-87.8293,1.674,8.94,1111122 
DISL,ioos:station:DISL:BSCA:1,2013-08-04T04:30:00Z,30.3288,-87.8293,1.696,8.91,1111122 
DISL,ioos:station:DISL:BSCA:1,2013-08-04T05:00:00Z,30.3288,-87.8293,1.743,8.87,1111122 
DISL,ioos:station:DISL:BSCA:1,2013-08-04T05:30:00Z,30.3288,-87.8293,1.766,8.79,1111122 
DISL,ioos:station:DISL:BSCA:1,2013-08-04T06:00:00Z,30.3288,-87.8293,1.799,8.71,1111122 
DISL,ioos:station:DISL:BSCA:1,2013-08-04T06:30:00Z,30.3288,-87.8293,1.815,8.67,1111122 
DISL,ioos:station:DISL:BSCA:1,2013-08-04T07:00:00Z,30.3288,-87.8293,1.826,8.72,1111122 
DISL,ioos:station:DISL:BSCA:1,2013-08-04T07:30:00Z,30.3288,-87.8293,1.831,8.72,1111122 
DISL,ioos:station:DISL:BSCA:1,2013-08-04T08:00:00Z,30.3288,-87.8293,1.845,8.72,1111122 
DISL,ioos:station:DISL:BSCA:1,2013-08-04T08:30:00Z,30.3288,-87.8293,1.861,8.76,1111122 
DISL,ioos:station:DISL:BSCA:1,2013-08-04T09:00:00Z,30.3288,-87.8293,1.887,8.67,1111122 
DISL,ioos:station:DISL:BSCA:1,2013-08-04T09:30:00Z,30.3288,-87.8293,1.911,8.82,1111122 
DISL,ioos:station:DISL:BSCA:1,2013-08-04T10:00:00Z,30.3288,-87.8293,1.939,9.31,1111122 
DISL,ioos:station:DISL:BSCA:1,2013-08-04T10:30:00Z,30.3288,-87.8293,1.969,9.24,1111122 
DISL,ioos:station:DISL:BSCA:1,2013-08-04T11:00:00Z,30.3288,-87.8293,1.997,9.16,1111122 
DISL,ioos:station:DISL:BSCA:1,2013-08-04T11:30:00Z,30.3288,-87.8293,2.014,9.22,1111122 
DISL,ioos:station:DISL:BSCA:1,2013-08-04T12:00:00Z,30.3288,-87.8293,2.026,9.24,1111122 
DISL,ioos:station:DISL:BSCA:1,2013-08-04T12:30:00Z,30.3288,-87.8293,2.035,9.19,1111122 
DISL,ioos:station:DISL:BSCA:1,2013-08-04T13:00:00Z,30.3288,-87.8293,2.038,9.15,1111122 
DISL,ioos:station:DISL:BSCA:1,2013-08-04T13:30:00Z,30.3288,-87.8293,2.035,9.37,1111122 
DISL,ioos:station:DISL:BSCA:1,2013-08-04T14:00:00Z,30.3288,-87.8293,2.038,9.26,1111122 
DISL,ioos:station:DISL:BSCA:1,2013-08-04T14:30:00Z,30.3288,-87.8293,2.036,9.38,1111122 
DISL,ioos:station:DISL:BSCA:1,2013-08-04T15:00:00Z,30.3288,-87.8293,2.037,9.4,1111122 
DISL,ioos:station:DISL:BSCA:1,2013-08-04T15:30:00Z,30.3288,-87.8293,2.026,9.43,1111122 
DISL,ioos:station:DISL:BSCA:1,2013-08-04T16:00:00Z,30.3288,-87.8293,2.018,9.44,1111122 
DISL,ioos:station:DISL:BSCA:1,2013-08-04T16:30:00Z,30.3288,-87.8293,2.001,9.54,1111122 
DISL,ioos:station:DISL:BSCA:1,2013-08-04T17:00:00Z,30.3288,-87.8293,1.983,9.59,1111122 
DISL,ioos:station:DISL:BSCA:1,2013-08-04T17:30:00Z,30.3288,-87.8293,1.958,9.65,1111122 
DISL,ioos:station:DISL:BSCA:1,2013-08-04T18:00:00Z,30.3288,-87.8293,1.931,9.66,1111122 
DISL,ioos:station:DISL:BSCA:1,2013-08-04T18:30:00Z,30.3288,-87.8293,1.912,9.69,1111122 
DISL,ioos:station:DISL:BSCA:1,2013-08-04T19:00:00Z,30.3288,-87.8293,1.881,9.76,1111122 
DISL,ioos:station:DISL:BSCA:1,2013-08-04T19:30:00Z,30.3288,-87.8293,1.861,9.85,1111122 
DISL,ioos:station:DISL:BSCA:1,2013-08-04T20:00:00Z,30.3288,-87.8293,1.835,9.86,1111122 
DISL,ioos:station:DISL:BSCA:1,2013-08-04T20:30:00Z,30.3288,-87.8293,1.807,9.94,1111122 
DISL,ioos:station:DISL:BSCA:1,2013-08-04T21:00:00Z,30.3288,-87.8293,1.782,9.9,1111122 
DISL,ioos:station:DISL:BSCA:1,2013-08-04T21:30:00Z,30.3288,-87.8293,1.762,9.91,1111122 
DISL,ioos:station:DISL:BSCA:1,2013-08-04T22:00:00Z,30.3288,-87.8293,1.739,9.92,1111122 
DISL,ioos:station:DISL:BSCA:1,2013-08-04T22:30:00Z,30.3288,-87.8293,1.727,9.96,1111122 
DISL,ioos:station:DISL:BSCA:1,2013-08-04T23:00:00Z,30.3288,-87.8293,1.707,9.96,1111122 
DISL,ioos:station:DISL:BSCA:1,2013-08-04T23:30:00Z,30.3288,-87.8293,1.694,9.89,1111122 
DISL,ioos:station:DISL:BSCA:1,2013-08-05T00:00:00Z,30.3288,-87.8293,1.72,8.87,1111122 
DISL,ioos:station:DISL:BSCA:1,2013-08-05T00:30:00Z,30.3288,-87.8293,1.68,8.79,1111122 
DISL,ioos:station:DISL:BSCA:1,2013-08-05T01:00:00Z,30.3288,-87.8293,1.766,9.26,1111122 
DISL,ioos:station:DISL:BSCA:1,2013-08-05T01:30:00Z,30.3288,-87.8293,1.637,8.7,1111122 
DISL,ioos:station:DISL:BSCA:1,2013-08-05T02:00:00Z,30.3288,-87.8293,1.604,8.69,1111122 
DISL,ioos:station:DISL:BSCA:1,2013-08-05T02:30:00Z,30.3288,-87.8293,1.621,8.71,1111122 
DISL,ioos:station:DISL:BSCA:1,2013-08-05T03:00:00Z,30.3288,-87.8293,1.553,8.74,1111122 
DISL,ioos:station:DISL:BSCA:1,2013-08-05T03:30:00Z,30.3288,-87.8293,1.629,8.78,1111122 
DISL,ioos:station:DISL:BSCA:1,2013-08-05T04:00:00Z,30.3288,-87.8293,1.618,8.63,1111122 
DISL,ioos:station:DISL:BSCA:1,2013-08-05T04:30:00Z,30.3288,-87.8293,1.673,8.9,1111122 
DISL,ioos:station:DISL:BSCA:1,2013-08-05T05:00:00Z,30.3288,-87.8293,1.698,9.24,1111122 
DISL,ioos:station:DISL:BSCA:1,2013-08-05T05:30:00Z,30.3288,-87.8293,1.719,9.25,1111122 
DISL,ioos:station:DISL:BSCA:1,2013-08-05T06:00:00Z,30.3288,-87.8293,1.718,9.25,1111122 
DISL,ioos:station:DISL:BSCA:1,2013-08-05T06:30:00Z,30.3288,-87.8293,1.751,9.31,1111122 
DISL,ioos:station:DISL:BSCA:1,2013-08-05T07:00:00Z,30.3288,-87.8293,1.753,9.23,1111122 
DISL,ioos:station:DISL:BSCA:1,2013-08-05T07:30:00Z,30.3288,-87.8293,1.808,9.35,1111122 
DISL,ioos:station:DISL:BSCA:1,2013-08-05T08:00:00Z,30.3288,-87.8293,1.818,9.35,1111122 
DISL,ioos:station:DISL:BSCA:1,2013-08-05T08:30:00Z,30.3288,-87.8293,1.839,9.46,1111122 
DISL,ioos:station:DISL:BSCA:1,2013-08-05T09:00:00Z,30.3288,-87.8293,1.86,9.44,1111122 
DISL,ioos:station:DISL:BSCA:1,2013-08-05T09:30:00Z,30.3288,-87.8293,1.876,9.53,1111122 
DISL,ioos:station:DISL:BSCA:1,2013-08-05T10:00:00Z,30.3288,-87.8293,1.909,9.54,1111122 
DISL,ioos:station:DISL:BSCA:1,2013-08-05T10:30:00Z,30.3288,-87.8293,1.921,9.54,1111122 
DISL,ioos:station:DISL:BSCA:1,2013-08-05T11:00:00Z,30.3288,-87.8293,1.961,9.51,1111122 
DISL,ioos:station:DISL:BSCA:1,2013-08-05T11:30:00Z,30.3288,-87.8293,1.981,9.52,1111122 
DISL,ioos:station:DISL:BSCA:1,2013-08-05T12:00:00Z,30.3288,-87.8293,2.017,9.54,1111122 
DISL,ioos:station:DISL:BSCA:1,2013-08-05T12:30:00Z,30.3288,-87.8293,2.026,9.51,1111122 
DISL,ioos:station:DISL:BSCA:1,2013-08-05T13:00:00Z,30.3288,-87.8293,2.029,9.54,1111122 
DISL,ioos:station:DISL:BSCA:1,2013-08-05T13:30:00Z,30.3288,-87.8293,2.045,9.59,1111122 
DISL,ioos:station:DISL:BSCA:1,2013-08-05T14:00:00Z,30.3288,-87.8293,2.046,9.63,1111122 
DISL,ioos:station:DISL:BSCA:1,2013-08-05T14:30:00Z,30.3288,-87.8293,2.051,9.69,1111122 
DISL,ioos:station:DISL:BSCA:1,2013-08-05T15:00:00Z,30.3288,-87.8293,2.045,9.75,1111122 
DISL,ioos:station:DISL:BSCA:1,2013-08-05T15:30:00Z,30.3288,-87.8293,2.038,9.8,1111122 
DISL,ioos:station:DISL:BSCA:1,2013-08-05T16:00:00Z,30.3288,-87.8293,2.037,9.82,1111122 
DISL,ioos:station:DISL:BSCA:1,2013-08-05T16:30:00Z,30.3288,-87.8293,2.023,9.79,1111122 
DISL,ioos:station:DISL:BSCA:1,2013-08-05T17:00:00Z,30.3288,-87.8293,2.007,9.87,1111122 
DISL,ioos:station:DISL:BSCA:1,2013-08-05T17:30:00Z,30.3288,-87.8293,1.97,9.69,1111122 
DISL,ioos:station:DISL:BSCA:1,2013-08-05T18:00:00Z,30.3288,-87.8293,1.948,9.81,1111122 
DISL,ioos:station:DISL:BSCA:1,2013-08-05T18:30:00Z,30.3288,-87.8293,1.921,9.83,1111122 
DISL,ioos:station:DISL:BSCA:1,2013-08-05T19:00:00Z,30.3288,-87.8293,1.892,9.81,1111122 
DISL,ioos:station:DISL:BSCA:1,2013-08-05T19:30:00Z,30.3288,-87.8293,1.868,9.78,1111122 
DISL,ioos:station:DISL:BSCA:1,2013-08-05T20:00:00Z,30.3288,-87.8293,1.835,9.73,1111122 
DISL,ioos:station:DISL:BSCA:1,2013-08-05T20:30:00Z,30.3288,-87.8293,1.807,9.66,1111122 
DISL,ioos:station:DISL:BSCA:1,2013-08-05T21:00:00Z,30.3288,-87.8293,1.772,9.56,1111122 
DISL,ioos:station:DISL:BSCA:1,2013-08-05T21:30:00Z,30.3288,-87.8293,1.75,9.6,1111122 
DISL,ioos:station:DISL:BSCA:1,2013-08-05T22:00:00Z,30.3288,-87.8293,1.709,9.5,1111122 
DISL,ioos:station:DISL:BSCA:1,2013-08-05T22:30:00Z,30.3288,-87.8293,1.663,9.53,1111122 
DISL,ioos:station:DISL:BSCA:1,2013-08-05T23:00:00Z,30.3288,-87.8293,1.675,9.53,1111122 
DISL,ioos:station:DISL:BSCA:1,2013-08-05T23:30:00Z,30.3288,-87.8293,1.674,9.1,1111122 
DISL,ioos:station:DISL:BSCA:1,2013-08-06T00:00:00Z,30.3288,-87.8293,1.687,8.91,1111122 
DISL,ioos:station:DISL:BSCA:1,2013-08-06T00:30:00Z,30.3288,-87.8293,1.709,8.9,1111122 
DISL,ioos:station:DISL:BSCA:1,2013-08-06T01:00:00Z,30.3288,-87.8293,1.623,9.03,1111122 
DISL,ioos:station:DISL:BSCA:1,2013-08-06T01:30:00Z,30.3288,-87.8293,1.588,8.95,1111122 
DISL,ioos:station:DISL:BSCA:1,2013-08-06T02:00:00Z,30.3288,-87.8293,1.568,8.94,1111122 
DISL,ioos:station:DISL:BSCA:1,2013-08-06T02:30:00Z,30.3288,-87.8293,1.529,8.93,1111122 
DISL,ioos:station:DISL:BSCA:1,2013-08-06T03:00:00Z,30.3288,-87.8293,1.532,9.24,1111122 
DISL,ioos:station:DISL:BSCA:1,2013-08-06T03:30:00Z,30.3288,-87.8293,1.537,8.97,1111122 
DISL,ioos:station:DISL:BSCA:1,2013-08-06T04:00:00Z,30.3288,-87.8293,1.542,8.98,1111122 
DISL,ioos:station:DISL:BSCA:1,2013-08-06T04:30:00Z,30.3288,-87.8293,1.566,9.07,1111122 
DISL,ioos:station:DISL:BSCA:1,2013-08-06T05:00:00Z,30.3288,-87.8293,1.593,8.97,1111122 
DISL,ioos:station:DISL:BSCA:1,2013-08-06T05:30:00Z,30.3288,-87.8293,1.615,9.01,1111122 
DISL,ioos:station:DISL:BSCA:1,2013-08-06T06:00:00Z,30.3288,-87.8293,1.666,9.05,1111122 
DISL,ioos:station:DISL:BSCA:1,2013-08-06T06:30:00Z,30.3288,-87.8293,1.684,9.05,1111122 
DISL,ioos:station:DISL:BSCA:1,2013-08-06T07:00:00Z,30.3288,-87.8293,1.71,9.09,1111122 
DISL,ioos:station:DISL:BSCA:1,2013-08-06T07:30:00Z,30.3288,-87.8293,1.736,9.1,1111122 
DISL,ioos:station:DISL:BSCA:1,2013-08-06T08:00:00Z,30.3288,-87.8293,1.755,9.15,1111122 
DISL,ioos:station:DISL:BSCA:1,2013-08-06T08:30:00Z,30.3288,-87.8293,1.775,9.1,1111122 
DISL,ioos:station:DISL:BSCA:1,2013-08-06T09:00:00Z,30.3288,-87.8293,1.799,9.13,1111122 
DISL,ioos:station:DISL:BSCA:1,2013-08-06T09:30:00Z,30.3288,-87.8293,1.821,9.13,1111122 
DISL,ioos:station:DISL:BSCA:1,2013-08-06T10:00:00Z,30.3288,-87.8293,1.862,9.15,1111122 
DISL,ioos:station:DISL:BSCA:1,2013-08-06T10:30:00Z,30.3288,-87.8293,1.869,9.19,1111122 
DISL,ioos:station:DISL:BSCA:1,2013-08-06T11:00:00Z,30.3288,-87.8293,1.9,9.26,1111122 
DISL,ioos:station:DISL:BSCA:1,2013-08-06T11:30:00Z,30.3288,-87.8293,1.91,9.22,1111122 
DISL,ioos:station:DISL:BSCA:1,2013-08-06T12:00:00Z,30.3288,-87.8293,1.941,9.29,1111122 
DISL,ioos:station:DISL:BSCA:1,2013-08-06T12:30:00Z,30.3288,-87.8293,1.965,9.36,1111122 
DISL,ioos:station:DISL:BSCA:1,2013-08-06T13:00:00Z,30.3288,-87.8293,1.979,9.35,1111122 
DISL,ioos:station:DISL:BSCA:1,2013-08-06T13:30:00Z,30.3288,-87.8293,2.003,9.33,1111122 
DISL,ioos:station:DISL:BSCA:1,2013-08-06T14:00:00Z,30.3288,-87.8293,2.015,9.27,1111122 
DISL,ioos:station:DISL:BSCA:1,2013-08-06T14:30:00Z,30.3288,-87.8293,2.043,9.36,1111122 